{"data":{"norad_id":62411,"intl_designator":"2024-249C","name":"STARLINK-11453 [DTC]","alt_names":[],"object_type":"PAYLOAD","status":"ACTIVE","operator":null,"country":"US","launch_date":"2024-12-23","launch_site_code":"AFETR","launch_vehicle":null,"mission":null,"orbit_class":"UNKNOWN","rcs_meters":null,"size_class":null,"mass_kg":null,"dimensions":null,"purposes":["comms"],"wikipedia_slug":null,"has_3d_model":false,"image_url":null,"decayed_at":null,"tle_current":{"epoch":"2026-05-25T03:09:27.074304Z","epoch_age_seconds":53923,"freshness":"FRESH","line1":"1 62411U 24249C   26145.13156336  .00194735  00000+0  14828-2 0  9994","line2":"2 62411  43.0016  66.8262 0002205 257.2023 102.8598 15.70887422 81501","mean_motion":15.70887422,"eccentricity":0.0002205,"inclination_deg":43.0016,"raan_deg":66.8262,"arg_perigee_deg":257.2023,"mean_anomaly_deg":102.8598,"bstar":0.0014828,"rev_number":8150,"period_min":91.667931121801,"perigee_km":354.87456754361,"apogee_km":357.84448051071,"semimajor_km":6734.4965240272,"source":"CELESTRAK","updated_at":"2026-05-25T13:38:19.652369Z"}}}